| time (UTC) | temp C | wind direction | speed KPH | gust KPH | rain 1hr cm | rain 24hr cm | rain mn cm | humidity % | barometer mb |
| 20260502224650 | 16 | 333 | 1.6 | 1.6 | 0.00 | 0.00 | 0.00 | 39 | 1003.5 |
| 20260502224146 | 16 | 227 | 3.2 | 3.2 | 0.00 | 0.00 | 0.00 | 37 | 1003.4 |
| 20260502223644 | 16 | 242 | 3.2 | 4.8 | 0.00 | 0.00 | 0.00 | 37 | 1003.4 |
| 20260502223142 | 16 | 307 | 1.6 | 3.2 | 0.00 | 0.00 | 0.00 | 36 | 1003.5 |
| 20260502222634 | 17 | 255 | 1.6 | 1.6 | 0.00 | 0.00 | 0.00 | 36 | 1003.4 |
| 20260502222131 | 17 | 172 | 3.2 | 4.8 | 0.00 | 0.00 | 0.00 | 36 | 1003.3 |
| 20260502221626 | 17 | 247 | 4.8 | 6.4 | 0.00 | 0.00 | 0.00 | 36 | 1003.5 |
| 20260502221123 | 17 | 233 | 1.6 | 1.6 | 0.00 | 0.00 | 0.00 | 36 | 1003.3 |
| 20260502220619 | 17 | 271 | 1.6 | 1.6 | 0.00 | 0.00 | 0.00 | 37 | 1003.4 |
| 20260502220115 | 17 | 134 | 1.6 | 1.6 | 0.00 | 0.00 | 0.00 | 35 | 1003.5 |
| 20260502215613 | 17 | 247 | 0.0 | 0.0 | 0.00 | 0.00 | 0.00 | 34 | 1003.4 |
| 20260502215110 | 17 | 216 | 1.6 | 1.6 | 0.00 | 0.00 | 0.00 | 35 | 1003.5 |
| 20260502214607 | 17 | 261 | 1.6 | 1.6 | 0.00 | 0.00 | 0.00 | 35 | 1003.6 |
| 20260502214104 | 17 | 279 | 0.0 | 1.6 | 0.00 | 0.00 | 0.00 | 38 | 1003.8 |
| 20260502213601 | 16 | 279 | 1.6 | 1.6 | 0.00 | 0.00 | 0.00 | 36 | 1003.5 |
| 20260502213058 | 16 | 331 | 0.0 | 0.0 | 0.00 | 0.00 | 0.00 | 37 | 1003.7 |
| 20260502212557 | 16 | 77 | 1.6 | 1.6 | 0.00 | 0.00 | 0.00 | 37 | 1003.6 |
| 20260502212055 | 16 | 261 | 0.0 | 0.0 | 0.00 | 0.00 | 0.00 | 36 | 1003.6 |
| 20260502211550 | 16 | 243 | 3.2 | 4.8 | 0.00 | 0.00 | 0.00 | 35 | 1003.9 |
| 20260502211048 | 17 | 276 | 3.2 | 4.8 | 0.00 | 0.00 | 0.00 | 34 | 1004.1 |
| 20260502210544 | 17 | 329 | 3.2 | 3.2 | 0.00 | 0.00 | 0.00 | 36 | 1004.0 |
| 20260502210041 | 17 | 357 | 4.8 | 4.8 | 0.00 | 0.00 | 0.00 | 34 | 1004.1 |
| 20260502205538 | 17 | 287 | 1.6 | 1.6 | 0.00 | 0.00 | 0.00 | 34 | 1004.2 |
| 20260502205035 | 17 | 198 | 0.0 | 0.0 | 0.00 | 0.00 | 0.00 | 37 | 1004.3 |
| 20260502204532 | 17 | 124 | 1.6 | 3.2 | 0.00 | 0.00 | 0.00 | 35 | 1004.2 |
| 20260502204030 | 17 | 114 | 1.6 | 1.6 | 0.00 | 0.00 | 0.00 | 33 | 1004.3 |
| 20260502203526 | 17 | 31 | 1.6 | 1.6 | 0.00 | 0.00 | 0.00 | 33 | 1004.3 |
| 20260502203023 | 17 | 255 | 1.6 | 3.2 | 0.00 | 0.00 | 0.00 | 33 | 1004.6 |
| 20260502202519 | 17 | 260 | 4.8 | 6.4 | 0.00 | 0.00 | 0.00 | 33 | 1004.4 |
| 20260502202018 | 17 | 340 | 1.6 | 1.6 | 0.00 | 0.00 | 0.00 | 32 | 1004.5 |
| 20260502201514 | 17 | 281 | 3.2 | 4.8 | 0.00 | 0.00 | 0.00 | 32 | 1004.5 |
| 20260502201010 | 18 | 283 | 4.8 | 4.8 | 0.00 | 0.00 | 0.00 | 32 | 1004.4 |
| 20260502200506 | 18 | 133 | 3.2 | 3.2 | 0.00 | 0.00 | 0.00 | 31 | 1004.4 |
| 20260502200004 | 17 | 313 | 0.0 | 1.6 | 0.00 | 0.00 | 0.00 | 32 | 1004.6 |
| 20260502195501 | 17 | 88 | 3.2 | 3.2 | 0.00 | 0.00 | 0.00 | 35 | 1004.7 |
| 20260502194957 | 17 | 252 | 1.6 | 1.6 | 0.00 | 0.00 | 0.00 | 35 | 1004.9 |
| 20260502194454 | 17 | 183 | 0.0 | 1.6 | 0.00 | 0.00 | 0.00 | 34 | 1004.8 |
| 20260502193950 | 16 | 248 | 0.0 | 1.6 | 0.00 | 0.00 | 0.00 | 34 | 1004.9 |
| 20260502193448 | 17 | 272 | 3.2 | 6.4 | 0.00 | 0.00 | 0.00 | 33 | 1004.9 |
| 20260502192943 | 17 | 98 | 1.6 | 3.2 | 0.00 | 0.00 | 0.00 | 36 | 1005.3 |
| 20260502192440 | 17 | 280 | 4.8 | 6.4 | 0.00 | 0.00 | 0.00 | 33 | 1005.1 |
| 20260502191937 | 16 | 60 | 0.0 | 1.6 | 0.00 | 0.00 | 0.00 | 37 | 1005.2 |
| 20260502191435 | 16 | 194 | 0.0 | 1.6 | 0.00 | 0.00 | 0.00 | 33 | 1005.5 |
| 20260502190932 | 16 | 102 | 3.2 | 3.2 | 0.00 | 0.00 | 0.00 | 33 | 1005.4 |
| 20260502190429 | 17 | 144 | 3.2 | 4.8 | 0.00 | 0.00 | 0.00 | 30 | 1005.5 |
| 20260502185925 | 16 | 147 | 3.2 | 4.8 | 0.00 | 0.00 | 0.00 | 32 | 1005.6 |
| 20260502185421 | 17 | 303 | 3.2 | 3.2 | 0.00 | 0.00 | 0.00 | 33 | 1005.7 |
| 20260502184918 | 16 | 75 | 1.6 | 3.2 | 0.00 | 0.00 | 0.00 | 34 | 1005.5 |
| 20260502184414 | 16 | 166 | 1.6 | 1.6 | 0.00 | 0.00 | 0.00 | 33 | 1005.8 |
| 20260502183910 | 16 | 160 | 4.8 | 6.4 | 0.00 | 0.00 | 0.00 | 32 | 1005.8 |
| 20260502183407 | 15 | 305 | 1.6 | 1.6 | 0.00 | 0.00 | 0.00 | 35 | 1006.0 |
| 20260502182902 | 16 | 37 | 0.0 | 0.0 | 0.00 | 0.00 | 0.00 | 34 | 1005.9 |
| 20260502182358 | 16 | 297 | 0.0 | 0.0 | 0.00 | 0.00 | 0.00 | 32 | 1006.0 |
| 20260502181854 | 15 | 282 | 1.6 | 3.2 | 0.00 | 0.00 | 0.00 | 32 | 1005.9 |
| 20260502181353 | 16 | 276 | 3.2 | 3.2 | 0.00 | 0.00 | 0.00 | 32 | 1006.1 |
| 20260502180851 | 15 | 26 | 1.6 | 1.6 | 0.00 | 0.00 | 0.00 | 33 | 1006.0 |
| 20260502180347 | 16 | 152 | 4.8 | 6.4 | 0.00 | 0.00 | 0.00 | 34 | 1006.2 |
| 20260502170306 | 15 | 147 | 1.6 | 1.6 | 0.00 | 0.00 | 0.00 | 32 | 1006.7 |
| 20260502164254 | 14 | 206 | 3.2 | 4.8 | 0.00 | 0.00 | 0.00 | 32 | 1007.0 |
| 20260502163749 | 13 | 291 | 1.6 | 3.2 | 0.00 | 0.00 | 0.00 | 33 | 1007.1 |
| 20260502163246 | 14 | 253 | 3.2 | 3.2 | 0.00 | 0.00 | 0.00 | 32 | 1007.1 |
| 20260502162743 | 14 | 257 | 1.6 | 3.2 | 0.00 | 0.00 | 0.00 | 32 | 1007.1 |
| 20260502162240 | 13 | 102 | 0.0 | 0.0 | 0.00 | 0.00 | 0.00 | 37 | 1007.1 |
| 20260502161737 | 12 | 194 | 1.6 | 1.6 | 0.00 | 0.00 | 0.00 | 35 | 1007.2 |
| 20260502161233 | 12 | 215 | 1.6 | 3.2 | 0.00 | 0.00 | 0.00 | 34 | 1007.4 |
| 20260502160731 | 11 | 308 | 0.0 | 0.0 | 0.00 | 0.00 | 0.00 | 34 | 1007.6 |
| 20260502160230 | 12 | 205 | 0.0 | 0.0 | 0.00 | 0.00 | 0.00 | 35 | 1007.6 |
| 20260502152148 | 12 | 214 | 3.2 | 3.2 | 0.00 | 0.00 | 0.00 | 36 | 1007.8 |
| 20260502151646 | 11 | 113 | 1.6 | 1.6 | 0.00 | 0.00 | 0.00 | 38 | 1008.0 |
| 20260502151143 | 12 | 169 | 1.6 | 1.6 | 0.00 | 0.00 | 0.00 | 39 | 1008.3 |
| 20260502150640 | 11 | 176 | 3.2 | 4.8 | 0.00 | 0.00 | 0.00 | 36 | 1008.2 |
| 20260502150136 | 10 | 260 | 1.6 | 1.6 | 0.00 | 0.00 | 0.00 | 40 | 1008.4 |
| 20260502130525 | 5 | 91 | 0.0 | 0.0 | 0.00 | 0.00 | 0.00 | 64 | 1009.1 |
| 20260502123509 | 1 | 82 | 0.0 | 0.0 | 0.00 | 0.00 | 0.00 | 80 | 1009.2 |
| 20260502123005 | 0 | 82 | 0.0 | 0.0 | 0.00 | 0.00 | 0.00 | 87 | 1009.2 |
| 20260502122501 | 0 | 83 | 0.0 | 0.0 | 0.00 | 0.00 | 0.00 | 87 | 1009.4 |
| 20260502121959 | -1 | 83 | 0.0 | 0.0 | 0.00 | 0.00 | 0.00 | 89 | 1009.3 |
| 20260502121456 | -1 | 83 | 0.0 | 0.0 | 0.00 | 0.00 | 0.00 | 90 | 1009.4 |
| 20260502120954 | -2 | 83 | 0.0 | 0.0 | 0.00 | 0.00 | 0.00 | 90 | 1009.1 |
| 20260502120450 | -2 | 83 | 0.0 | 0.0 | 0.00 | 0.00 | 0.00 | 91 | 1009.2 |
| 20260502115444 | -2 | 83 | 0.0 | 0.0 | 0.00 | 0.00 | 0.00 | 92 | 1009.3 |
| 20260502114940 | -3 | 83 | 0.0 | 0.0 | 0.00 | 0.00 | 0.00 | 93 | 1009.5 |
| 20260502114437 | -3 | 81 | 0.0 | 0.0 | 0.00 | 0.00 | 0.00 | 93 | 1009.5 |
| 20260502113934 | -3 | 81 | 0.0 | 0.0 | 0.00 | 0.00 | 0.00 | 94 | 1009.5 |
| 20260502113432 | -3 | 82 | 0.0 | 0.0 | 0.00 | 0.00 | 0.00 | 95 | 1009.4 |
| 20260502112930 | -4 | 82 | 0.0 | 0.0 | 0.00 | 0.00 | 0.00 | 95 | 1009.4 |
| 20260502112427 | -4 | 82 | 0.0 | 0.0 | 0.00 | 0.00 | 0.00 | 95 | 1009.5 |
| 20260502111925 | -4 | 81 | 0.0 | 0.0 | 0.00 | 0.00 | 0.00 | 94 | 1009.4 |
| 20260502111422 | -4 | 81 | 0.0 | 0.0 | 0.00 | 0.00 | 0.00 | 95 | 1009.5 |
| 20260502110919 | -4 | 81 | 0.0 | 0.0 | 0.00 | 0.00 | 0.00 | 95 | 1009.3 |
| 20260502110417 | -4 | 81 | 0.0 | 0.0 | 0.00 | 0.00 | 0.00 | 95 | 1009.4 |
| 20260502105914 | -5 | 81 | 0.0 | 0.0 | 0.00 | 0.00 | 0.00 | 95 | 1009.5 |
| 20260502105411 | -5 | 81 | 0.0 | 0.0 | 0.00 | 0.00 | 0.00 | 94 | 1009.5 |
| 20260502104909 | -4 | 81 | 0.0 | 0.0 | 0.00 | 0.00 | 0.00 | 95 | 1009.5 |
| 20260502104406 | -4 | 81 | 0.0 | 0.0 | 0.00 | 0.00 | 0.00 | 95 | 1009.7 |
| 20260502103903 | -5 | 81 | 0.0 | 0.0 | 0.00 | 0.00 | 0.00 | 94 | 1009.6 |
| 20260502103401 | -5 | 81 | 0.0 | 0.0 | 0.00 | 0.00 | 0.00 | 94 | 1009.8 |
| 20260502102857 | -4 | 81 | 0.0 | 0.0 | 0.00 | 0.00 | 0.00 | 94 | 1009.6 |
| 20260502102354 | -4 | 81 | 0.0 | 0.0 | 0.00 | 0.00 | 0.00 | 95 | 1009.9 |
| 20260502101852 | -4 | 81 | 0.0 | 0.0 | 0.00 | 0.00 | 0.00 | 95 | 1010.1 |
| 20260502101350 | -4 | 81 | 0.0 | 0.0 | 0.00 | 0.00 | 0.00 | 94 | 1009.9 |
| 20260502100848 | -4 | 81 | 0.0 | 0.0 | 0.00 | 0.00 | 0.00 | 94 | 1009.8 |
| 20260502100347 | -4 | 81 | 0.0 | 0.0 | 0.00 | 0.00 | 0.00 | 94 | 1009.9 |
| 20260502091320 | -3 | 81 | 0.0 | 0.0 | 0.00 | 0.00 | 0.00 | 92 | 1010.2 |
| 20260502090818 | -3 | 81 | 0.0 | 0.0 | 0.00 | 0.00 | 0.00 | 92 | 1010.3 |
| 20260502090314 | -3 | 81 | 0.0 | 0.0 | 0.00 | 0.00 | 0.00 | 92 | 1010.2 |
| 20260502071210 | -3 | 81 | 0.0 | 0.0 | 0.00 | 0.00 | 0.00 | 89 | 1011.1 |
| 20260502070708 | -3 | 81 | 0.0 | 0.0 | 0.00 | 0.00 | 0.00 | 89 | 1011.0 |
| 20260502070205 | -3 | 81 | 0.0 | 0.0 | 0.00 | 0.00 | 0.00 | 89 | 1011.0 |
| 20260502065704 | -2 | 81 | 0.0 | 0.0 | 0.00 | 0.00 | 0.00 | 88 | 1011.1 |
| 20260502065201 | -2 | 81 | 0.0 | 0.0 | 0.00 | 0.00 | 0.00 | 88 | 1011.2 |
| 20260502064700 | -2 | 81 | 0.0 | 0.0 | 0.00 | 0.00 | 0.00 | 88 | 1011.3 |
| 20260502064156 | -2 | 81 | 0.0 | 0.0 | 0.00 | 0.00 | 0.00 | 88 | 1011.2 |
| 20260502063654 | -2 | 81 | 0.0 | 0.0 | 0.00 | 0.00 | 0.00 | 88 | 1011.4 |
| 20260502063152 | -2 | 81 | 0.0 | 0.0 | 0.00 | 0.00 | 0.00 | 88 | 1011.5 |
| 20260502062649 | -2 | 81 | 0.0 | 0.0 | 0.00 | 0.00 | 0.00 | 89 | 1011.4 |
| 20260502062146 | -2 | 81 | 0.0 | 0.0 | 0.00 | 0.00 | 0.00 | 87 | 1011.5 |
| 20260502061644 | -2 | 81 | 0.0 | 0.0 | 0.00 | 0.00 | 0.00 | 86 | 1011.4 |
| 20260502061143 | -2 | 81 | 0.0 | 0.0 | 0.00 | 0.00 | 0.00 | 87 | 1011.5 |
| 20260502060642 | -2 | 81 | 0.0 | 0.0 | 0.00 | 0.00 | 0.00 | 86 | 1011.6 |
| 20260502060139 | -2 | 81 | 0.0 | 0.0 | 0.00 | 0.00 | 0.00 | 86 | 1011.6 |
| 20260502055637 | -2 | 81 | 0.0 | 0.0 | 0.00 | 0.00 | 0.00 | 85 | 1011.6 |
| 20260502055134 | -2 | 81 | 0.0 | 0.0 | 0.00 | 0.00 | 0.00 | 84 | 1011.6 |
| 20260502054633 | -2 | 81 | 0.0 | 0.0 | 0.00 | 0.00 | 0.00 | 81 | 1011.8 |
| 20260502054130 | -2 | 81 | 0.0 | 0.0 | 0.00 | 0.00 | 0.00 | 83 | 1011.8 |
| 20260502053627 | -2 | 81 | 0.0 | 0.0 | 0.00 | 0.00 | 0.00 | 80 | 1011.8 |
| 20260502053124 | -2 | 81 | 0.0 | 0.0 | 0.00 | 0.00 | 0.00 | 84 | 1011.8 |
| 20260502052623 | -2 | 81 | 0.0 | 0.0 | 0.00 | 0.00 | 0.00 | 84 | 1011.7 |
| 20260502052121 | -2 | 81 | 0.0 | 0.0 | 0.00 | 0.00 | 0.00 | 82 | 1011.6 |
| 20260502051619 | -1 | 81 | 0.0 | 0.0 | 0.00 | 0.00 | 0.00 | 84 | 1011.6 |
| 20260502051117 | -1 | 81 | 0.0 | 0.0 | 0.00 | 0.00 | 0.00 | 84 | 1011.9 |
| 20260502050612 | -1 | 81 | 0.0 | 0.0 | 0.00 | 0.00 | 0.00 | 82 | 1011.8 |
| 20260502050109 | -1 | 81 | 0.0 | 0.0 | 0.00 | 0.00 | 0.00 | 82 | 1011.9 |
| 20260502045605 | -1 | 81 | 0.0 | 0.0 | 0.00 | 0.00 | 0.00 | 81 | 1011.8 |
| 20260502045103 | -1 | 81 | 0.0 | 0.0 | 0.00 | 0.00 | 0.00 | 80 | 1011.8 |
| 20260502044559 | -1 | 81 | 0.0 | 0.0 | 0.00 | 0.00 | 0.00 | 80 | 1011.9 |
| 20260502044056 | -1 | 81 | 0.0 | 0.0 | 0.00 | 0.00 | 0.00 | 80 | 1012.0 |
| 20260502043554 | -1 | 81 | 0.0 | 0.0 | 0.00 | 0.00 | 0.00 | 78 | 1012.1 |
| 20260502043050 | -1 | 81 | 0.0 | 0.0 | 0.00 | 0.00 | 0.00 | 79 | 1012.1 |
| 20260502042544 | -1 | 81 | 0.0 | 0.0 | 0.00 | 0.00 | 0.00 | 77 | 1012.3 |
| 20260502042043 | -1 | 81 | 0.0 | 0.0 | 0.00 | 0.00 | 0.00 | 76 | 1012.1 |
| 20260502041540 | -1 | 81 | 0.0 | 0.0 | 0.00 | 0.00 | 0.00 | 76 | 1012.2 |
| 20260502041037 | -1 | 81 | 0.0 | 0.0 | 0.00 | 0.00 | 0.00 | 76 | 1012.3 |
| 20260502040533 | -1 | 81 | 0.0 | 0.0 | 0.00 | 0.00 | 0.00 | 76 | 1012.1 |
| 20260502040031 | 0 | 81 | 0.0 | 0.0 | 0.00 | 0.00 | 0.00 | 76 | 1012.2 |
| 20260502035526 | 0 | 81 | 0.0 | 0.0 | 0.00 | 0.00 | 0.00 | 74 | 1012.3 |
| 20260502035024 | 0 | 81 | 0.0 | 0.0 | 0.00 | 0.00 | 0.00 | 74 | 1012.5 |
| 20260502034522 | 0 | 81 | 0.0 | 0.0 | 0.00 | 0.00 | 0.00 | 73 | 1012.3 |
| 20260502034020 | 0 | 81 | 0.0 | 0.0 | 0.00 | 0.00 | 0.00 | 72 | 1012.3 |
| 20260502033518 | 1 | 81 | 0.0 | 0.0 | 0.00 | 0.00 | 0.00 | 72 | 1012.3 |
| 20260502033015 | 1 | 80 | 0.0 | 0.0 | 0.00 | 0.00 | 0.00 | 75 | 1012.3 |
| 20260502032511 | 1 | 78 | 0.0 | 0.0 | 0.00 | 0.00 | 0.00 | 73 | 1012.3 |
| 20260502032008 | 1 | 81 | 0.0 | 0.0 | 0.00 | 0.00 | 0.00 | 71 | 1012.7 |
| 20260502031506 | 2 | 70 | 3.2 | 3.2 | 0.00 | 0.00 | 0.00 | 66 | 1012.5 |
| 20260502031004 | 2 | 71 | 0.0 | 1.6 | 0.00 | 0.00 | 0.00 | 68 | 1012.7 |
| 20260502030502 | 2 | 321 | 0.0 | 0.0 | 0.00 | 0.00 | 0.00 | 70 | 1012.2 |
| 20260502030000 | 2 | 321 | 0.0 | 0.0 | 0.00 | 0.00 | 0.00 | 71 | 1012.5 |
| 20260502025456 | 2 | 321 | 0.0 | 0.0 | 0.00 | 0.00 | 0.00 | 66 | 1012.4 |
| 20260502024954 | 2 | 345 | 0.0 | 0.0 | 0.00 | 0.00 | 0.00 | 63 | 1012.3 |
| 20260502024452 | 2 | 48 | 0.0 | 0.0 | 0.00 | 0.00 | 0.00 | 60 | 1012.4 |
| 20260502023950 | 2 | 48 | 0.0 | 0.0 | 0.00 | 0.00 | 0.00 | 56 | 1012.4 |
| 20260502023447 | 2 | 48 | 0.0 | 0.0 | 0.00 | 0.00 | 0.00 | 53 | 1012.3 |
| 20260502022945 | 3 | 48 | 0.0 | 0.0 | 0.00 | 0.00 | 0.00 | 53 | 1012.3 |
| 20260502022441 | 3 | 48 | 0.0 | 0.0 | 0.00 | 0.00 | 0.00 | 52 | 1012.5 |
| 20260502021938 | 3 | 48 | 0.0 | 0.0 | 0.00 | 0.00 | 0.00 | 53 | 1012.2 |
| 20260502021435 | 3 | 48 | 0.0 | 0.0 | 0.00 | 0.00 | 0.00 | 54 | 1012.3 |
| 20260502020932 | 3 | 48 | 0.0 | 0.0 | 0.00 | 0.00 | 0.00 | 57 | 1012.3 |
| 20260502020430 | 3 | 48 | 0.0 | 0.0 | 0.00 | 0.00 | 0.00 | 57 | 1012.3 |
| 20260502015927 | 3 | 48 | 0.0 | 0.0 | 0.00 | 0.00 | 0.00 | 53 | 1012.2 |
| 20260502015425 | 4 | 49 | 0.0 | 0.0 | 0.00 | 0.00 | 0.00 | 57 | 1012.1 |
| 20260502014921 | 5 | 49 | 0.0 | 0.0 | 0.00 | 0.00 | 0.00 | 55 | 1012.2 |
| 20260502014418 | 5 | 48 | 0.0 | 0.0 | 0.00 | 0.00 | 0.00 | 53 | 1012.1 |
| 20260502013914 | 5 | 48 | 0.0 | 0.0 | 0.00 | 0.00 | 0.00 | 53 | 1012.0 |
| 20260502013410 | 6 | 48 | 0.0 | 0.0 | 0.00 | 0.00 | 0.00 | 48 | 1012.1 |
| 20260502012907 | 6 | 48 | 0.0 | 0.0 | 0.00 | 0.00 | 0.00 | 48 | 1012.2 |
| 20260502012405 | 6 | 49 | 0.0 | 0.0 | 0.00 | 0.00 | 0.00 | 53 | 1012.0 |
| 20260502011902 | 7 | 49 | 0.0 | 0.0 | 0.00 | 0.00 | 0.00 | 50 | 1012.2 |
| 20260502011358 | 7 | 61 | 0.0 | 0.0 | 0.00 | 0.00 | 0.00 | 45 | 1011.9 |
| 20260502010855 | 7 | 87 | 0.0 | 0.0 | 0.00 | 0.00 | 0.00 | 45 | 1011.9 |
| 20260502010351 | 6 | 64 | 0.0 | 0.0 | 0.00 | 0.00 | 0.00 | 46 | 1012.0 |
| 20260502005848 | 7 | 166 | 0.0 | 0.0 | 0.00 | 0.00 | 0.00 | 48 | 1011.8 |
| 20260502005346 | 7 | 264 | 0.0 | 0.0 | 0.00 | 0.00 | 0.00 | 49 | 1012.1 |
| 20260502004843 | 7 | 261 | 0.0 | 0.0 | 0.00 | 0.00 | 0.00 | 47 | 1011.7 |
| 20260502004339 | 8 | 126 | 0.0 | 0.0 | 0.00 | 0.00 | 0.00 | 42 | 1011.9 |
| 20260502003837 | 8 | 21 | 0.0 | 0.0 | 0.00 | 0.00 | 0.00 | 43 | 1011.9 |
| 20260502003334 | 8 | 66 | 0.0 | 1.6 | 0.00 | 0.00 | 0.00 | 40 | 1011.7 |
| 20260502002831 | 9 | 239 | 0.0 | 1.6 | 0.00 | 0.00 | 0.00 | 37 | 1011.9 |
| 20260502002328 | 9 | 73 | 0.0 | 0.0 | 0.00 | 0.00 | 0.00 | 35 | 1011.6 |
| 20260502001825 | 10 | 56 | 0.0 | 1.6 | 0.00 | 0.00 | 0.00 | 37 | 1011.8 |
| 20260502001323 | 10 | 13 | 1.6 | 3.2 | 0.00 | 0.00 | 0.00 | 36 | 1012.0 |
| 20260502000820 | 9 | 88 | 1.6 | 1.6 | 0.00 | 0.00 | 0.00 | 34 | 1011.9 |
| 20260502000318 | 9 | 54 | 0.0 | 1.6 | 0.00 | 0.00 | 0.00 | 35 | 1011.9 |
| 20260501235814 | 10 | 8 | 3.2 | 4.8 | 0.00 | 0.00 | 0.00 | 36 | 1011.9 |
| 20260501235310 | 10 | 72 | 0.0 | 1.6 | 0.00 | 0.00 | 0.00 | 36 | 1011.8 |
| 20260501234805 | 10 | 169 | 1.6 | 1.6 | 0.00 | 0.00 | 0.00 | 37 | 1011.9 |
| 20260501234303 | 11 | 341 | 3.2 | 4.8 | 0.00 | 0.00 | 0.00 | 32 | 1012.0 |
| 20260501233801 | 11 | 325 | 0.0 | 0.0 | 0.00 | 0.00 | 0.00 | 32 | 1012.1 |
| 20260501233258 | 11 | 10 | 3.2 | 3.2 | 0.00 | 0.00 | 0.00 | 36 | 1012.0 |
| 20260501232753 | 10 | 337 | 0.0 | 1.6 | 0.00 | 0.00 | 0.00 | 35 | 1012.0 |
| 20260501232251 | 10 | 246 | 3.2 | 3.2 | 0.00 | 0.00 | 0.00 | 33 | 1012.0 |
| 20260501231748 | 10 | 254 | 1.6 | 1.6 | 0.00 | 0.00 | 0.00 | 36 | 1012.0 |
| 20260501231246 | 10 | 351 | 0.0 | 0.0 | 0.00 | 0.00 | 0.00 | 32 | 1011.9 |
| 20260501230744 | 11 | 321 | 1.6 | 1.6 | 0.00 | 0.00 | 0.00 | 32 | 1012.0 |
| 20260501230243 | 11 | 69 | 3.2 | 4.8 | 0.00 | 0.00 | 0.00 | 33 | 1012.3 |
| 20260501225740 | 11 | 343 | 0.0 | 0.0 | 0.00 | 0.00 | 0.00 | 34 | 1012.2 |
| 20260501225237 | 10 | 329 | 1.6 | 3.2 | 0.00 | 0.00 | 0.00 | 33 | 1012.1 |
| 20260501224733 | 10 | 237 | 1.6 | 1.6 | 0.00 | 0.00 | 0.00 | 39 | 1011.9 |